Big Rapids, MI

2:26 PM EST on December 07, 2019 (GMT -0500)
Roben-Hood

Weather History for KRQB - November, 2019

Change the Weather History Date:

Tuesday, November 12, 2019

  Actual Average Record
Temperature  
Mean Temperature 15 °F -  
Max Temperature 22 °F 42 °F 60 °F (2005)
Min Temperature 8 °F 25 °F 9 °F (1986)
Degree Days  
Heating Degree Days 50    
Moisture  
Dew Point 11 °F    
Average Humidity 76    
Maximum Humidity 92    
Minimum Humidity 50    
Precipitation  
Precipitation 0.00 in - - ()
Sea Level Pressure  
Sea Level Pressure 30.28 in    
Wind  
Wind Speed 5 mph ()    
Max Wind Speed 15 mph    
Max Gust Speed 21 mph    
Visibility 7.8 miles    
Events Snow    
Averages and records for this station are not official NWS values.
T = Trace of Precipitation, MM = Missing Value Source: Averaged Metar Reports

Daily Weather History Graph

Daily Weather History Graph

Search for Another Location

Airport or City:

Astronomy

Nov. 12, 2019 Rise Set
Actual Time 7:32 AM EST 5:19 PM EST
Civil Twilight 7:01 AM EST 5:50 PM EST
Nautical Twilight 6:26 AM EST 6:24 PM EST
Astronomical Twilight 5:52 AM EST 6:58 PM EST
Moon 5:47 PM EST (11/12) 7:21 AM EST (11/12)
Length of Visible Light 10h 49m
Length of Day
9h 47m
Full, 100% of the Moon is Illuminated
Nov 12
Full
Nov 19
Last Quarter
Nov 26
New
Dec 4
First Quarter
Dec 12
Full

Hourly Weather History & Observations

Time (EST) Temp. Windchill Dew Point Humidity Pressure Visibility Wind Dir Wind Speed Gust Speed Precip Events Conditions
12:15 AM 20.3 °F 13.8 °F 10.9 °F 67% 30.21 in 10.0 mi NNE 4.6 mph - N/A   Overcast
12:35 AM 20.1 °F 12.3 °F 11.1 °F 68% 30.21 in 10.0 mi North 5.8 mph - N/A   Overcast
12:55 AM 19.4 °F 11.5 °F 10.8 °F 69% 30.21 in 10.0 mi North 5.8 mph - N/A   Overcast
12:56 AM 19.4 °F 11.5 °F 10.9 °F 70% 30.21 in 10.0 mi North 5.8 mph - N/A   Overcast
1:15 AM 19.2 °F 14.1 °F 11.8 °F 73% 30.21 in 10.0 mi North 3.5 mph - N/A   Overcast
1:35 AM 19.2 °F - 12.2 °F 74% 30.22 in 10.0 mi Calm Calm - N/A   Overcast
1:55 AM 19.2 °F 14.1 °F 12.2 °F 74% 30.22 in 10.0 mi NW 3.5 mph - N/A   Overcast
1:56 AM 19.4 °F 14.3 °F 12.2 °F 74% 30.22 in 10.0 mi NW 3.5 mph - N/A   Overcast
2:15 AM 19.4 °F - 12.6 °F 75% 30.22 in 10.0 mi Calm Calm - N/A   Overcast
2:16 AM 19.4 °F - 12.6 °F 75% 30.22 in 10.0 mi Calm Calm - N/A   Overcast
2:35 AM 19.2 °F 14.1 °F 11.7 °F 72% 30.22 in 10.0 mi NW 3.5 mph - N/A   Overcast
2:36 AM 19.2 °F 14.1 °F 11.5 °F 72% 30.22 in 10.0 mi NW 3.5 mph - N/A   Overcast
2:55 AM 19.4 °F 14.3 °F 12.2 °F 74% 30.22 in 10.0 mi NW 3.5 mph - N/A   Overcast
3:35 AM 18.5 °F 10.4 °F 13.5 °F 81% 30.22 in 10.0 mi WNW 5.8 mph - N/A   Overcast
4:15 AM 18.5 °F 11.7 °F 14.0 °F 83% 30.22 in 10.0 mi WNW 4.6 mph - N/A   Overcast
4:16 AM 18.5 °F 10.4 °F 14.0 °F 83% 30.22 in 10.0 mi WNW 5.8 mph - N/A   Overcast
4:35 AM 18.3 °F 13.1 °F 14.0 °F 83% 30.22 in 5.0 mi West 3.5 mph - N/A   Overcast
4:55 AM 18.5 °F - 14.5 °F 85% 30.23 in 4.0 mi Calm Calm - N/A Snow Light Snow
5:15 AM 18.1 °F 12.9 °F 14.9 °F 87% 30.22 in 2.0 mi WSW 3.5 mph - N/A Snow Light Snow
5:35 AM 18.3 °F - 15.4 °F 89% 30.22 in 2.0 mi Calm Calm - N/A Snow Light Snow
5:55 AM 19.0 °F 11.1 °F 16.5 °F 90% 30.22 in 2.5 mi West 5.8 mph - N/A Snow Light Snow
6:15 AM 19.2 °F 12.5 °F 16.5 °F 89% 30.23 in 2.0 mi WNW 4.6 mph - N/A Snow Light Snow
6:35 AM 19.2 °F 14.1 °F 16.5 °F 89% 30.23 in 1.5 mi WNW 3.5 mph - N/A Snow Light Snow
6:36 AM 19.2 °F 12.5 °F 16.7 °F 90% 30.23 in 1.5 mi West 4.6 mph - N/A Snow Light Snow
6:55 AM 19.2 °F 11.3 °F 16.5 °F 89% 30.24 in 2.0 mi WNW 5.8 mph - N/A Snow Light Snow
6:56 AM 19.2 °F 11.3 °F 16.5 °F 89% 30.24 in 1.8 mi WNW 5.8 mph - N/A Snow Light Snow
7:15 AM 18.9 °F 10.8 °F 16.5 °F 91% 30.24 in 0.8 mi WNW 5.8 mph - N/A Snow Snow
7:35 AM 18.7 °F 8.6 °F 16.0 °F 89% 30.25 in 1.2 mi WNW 8.1 mph - N/A Snow Light Snow
7:36 AM 18.5 °F 6.8 °F 15.8 °F 89% 30.25 in 1.2 mi NW 10.4 mph - N/A Snow Light Snow
7:55 AM 18.3 °F 7.3 °F 15.1 °F 87% 30.25 in 1.2 mi WNW 9.2 mph - N/A Snow Light Snow
8:15 AM 17.8 °F 7.5 °F 14.2 °F 86% 30.26 in 3.0 mi WNW 8.1 mph - N/A Snow Light Snow
8:35 AM 18.3 °F 9.1 °F 14.5 °F 85% 30.28 in 2.5 mi WNW 6.9 mph - N/A Snow Light Snow
8:55 AM 18.5 °F 9.3 °F 14.5 °F 85% 30.28 in 2.5 mi NW 6.9 mph - N/A Snow Light Snow
9:15 AM 19.4 °F 9.5 °F 14.5 °F 81% 30.29 in 3.0 mi NW 8.1 mph 16.1 mph N/A Snow Light Snow
9:16 AM 19.4 °F 9.5 °F 14.5 °F 81% 30.28 in 3.0 mi NW 8.1 mph 16.1 mph N/A Snow Light Snow
9:35 AM 19.9 °F 12.1 °F 14.9 °F 81% 30.29 in 3.0 mi WNW 5.8 mph - N/A Snow Light Snow
9:55 AM 20.7 °F 8.8 °F 15.1 °F 79% 30.29 in 4.0 mi West 11.5 mph 16.1 mph N/A Snow Light Snow
9:56 AM 20.7 °F 11.0 °F 15.1 °F 79% 30.29 in 5.0 mi WNW 8.1 mph 16.1 mph N/A Snow Light Snow
10:15 AM 20.3 °F 10.6 °F 14.4 °F 78% 30.29 in 7.0 mi WNW 8.1 mph - N/A Snow Light Snow
10:16 AM 20.3 °F 9.8 °F 14.5 °F 78% 30.29 in 7.0 mi WNW 9.2 mph - N/A Snow Light Snow
10:35 AM 20.8 °F 11.2 °F 14.5 °F 77% 30.30 in 7.0 mi NW 8.1 mph - N/A Snow Light Snow
10:36 AM 20.8 °F 10.4 °F 14.4 °F 76% 30.30 in 7.0 mi NW 9.2 mph - N/A Snow Light Snow
10:55 AM 20.8 °F 8.4 °F 14.0 °F 75% 30.30 in 7.0 mi NW 12.7 mph 16.1 mph N/A Snow Light Snow
11:15 AM 21.9 °F 8.7 °F 13.5 °F 70% 30.30 in 5.0 mi WNW 15.0 mph 18.4 mph N/A Snow Light Snow
11:35 AM 21.7 °F 10.8 °F 13.3 °F 70% 30.30 in 4.0 mi WNW 10.4 mph 18.4 mph N/A Snow Light Snow
11:55 AM 22.3 °F 11.5 °F 13.1 °F 68% 30.30 in 7.0 mi WNW 10.4 mph 18.4 mph N/A Snow Light Snow
12:15 PM 21.6 °F 10.6 °F 12.4 °F 68% 30.30 in 4.0 mi West 10.4 mph 17.3 mph N/A Snow Light Snow
12:16 PM 21.7 °F 12.3 °F 12.4 °F 67% 30.30 in 7.0 mi WNW 8.1 mph 17.3 mph N/A Snow Light Snow
12:35 PM 22.1 °F 10.0 °F 11.5 °F 64% 30.30 in 10.0 mi NW 12.7 mph 18.4 mph N/A Snow Light Snow
12:36 PM 22.1 °F 10.0 °F 11.3 °F 63% 30.30 in 10.0 mi NW 12.7 mph 18.4 mph N/A Snow Light Snow
12:55 PM 21.7 °F 14.3 °F 10.4 °F 62% 30.30 in 5.0 mi NW 5.8 mph 17.3 mph N/A Snow Light Snow
1:15 PM 21.9 °F 11.7 °F 12.6 °F 67% 30.30 in 7.0 mi WNW 9.2 mph 16.1 mph N/A Snow Light Snow
1:16 PM 22.1 °F 10.6 °F 12.7 °F 67% 30.30 in 7.0 mi NW 11.5 mph 16.1 mph N/A Snow Light Snow
1:35 PM 21.9 °F 12.5 °F 10.9 °F 63% 30.30 in 7.0 mi WNW 8.1 mph 20.7 mph N/A   Overcast
1:55 PM 22.6 °F 13.4 °F 11.3 °F 62% 30.30 in 7.0 mi WNW 8.1 mph 17.3 mph N/A Snow Light Snow
2:15 PM 21.9 °F 11.7 °F 9.3 °F 58% 30.30 in 10.0 mi WNW 9.2 mph 17.3 mph N/A   Mostly Cloudy
2:16 PM 21.9 °F 11.7 °F 9.3 °F 58% 30.30 in 10.0 mi NW 9.2 mph 17.3 mph N/A   Overcast
2:35 PM 21.9 °F 11.0 °F 10.0 °F 60% 30.30 in 10.0 mi West 10.4 mph 16.1 mph N/A   Overcast
2:55 PM 21.6 °F 12.1 °F 8.8 °F 58% 30.30 in 10.0 mi WNW 8.1 mph 16.1 mph N/A   Overcast
3:15 PM 22.8 °F 11.5 °F 8.4 °F 54% 30.30 in 10.0 mi WNW 11.5 mph - N/A   Overcast
3:16 PM 22.8 °F 12.9 °F 8.1 °F 53% 30.30 in 10.0 mi WNW 9.2 mph - N/A   Overcast
3:35 PM 22.5 °F 9.9 °F 6.1 °F 50% 30.30 in 10.0 mi WNW 13.8 mph 19.6 mph N/A   Overcast
3:36 PM 22.3 °F 10.2 °F 5.9 °F 50% 30.30 in 10.0 mi WNW 12.7 mph 19.6 mph N/A   Overcast
3:55 PM 22.1 °F 12.0 °F 9.0 °F 57% 30.31 in 10.0 mi WNW 9.2 mph - N/A   Overcast
4:15 PM 21.7 °F 10.8 °F 6.8 °F 53% 30.31 in 10.0 mi WNW 10.4 mph - N/A   Overcast
4:16 PM 21.7 °F 11.5 °F 6.8 °F 53% 30.31 in 10.0 mi WNW 9.2 mph - N/A   Overcast
4:35 PM 21.2 °F 10.1 °F 6.8 °F 54% 30.31 in 10.0 mi WNW 10.4 mph 16.1 mph N/A   Mostly Cloudy
4:55 PM 20.3 °F 11.5 °F 7.7 °F 58% 30.32 in 10.0 mi NW 6.9 mph - N/A   Mostly Cloudy
4:56 PM 20.3 °F 11.5 °F 7.7 °F 58% 30.32 in 10.0 mi NW 6.9 mph - N/A   Mostly Cloudy
5:15 PM 19.8 °F 11.9 °F 9.5 °F 64% 30.32 in 10.0 mi WNW 5.8 mph - N/A   Mostly Cloudy
5:16 PM 19.8 °F 14.7 °F 9.1 °F 63% 30.32 in 10.0 mi WNW 3.5 mph - N/A   Mostly Cloudy
5:35 PM 18.7 °F 9.5 °F 10.6 °F 71% 30.32 in 10.0 mi West 6.9 mph - N/A   Overcast
5:36 PM 18.7 °F 9.5 °F 10.6 °F 71% 30.32 in 10.0 mi West 6.9 mph - N/A   Mostly Cloudy
5:55 PM 19.0 °F 11.1 °F 12.2 °F 75% 30.32 in 10.0 mi West 5.8 mph - N/A   Overcast
6:15 PM 18.3 °F 8.2 °F 11.5 °F 75% 30.32 in 10.0 mi WNW 8.1 mph - N/A   Overcast
6:35 PM 18.0 °F 11.1 °F 11.3 °F 75% 30.33 in 10.0 mi West 4.6 mph - N/A   Overcast
6:55 PM 16.7 °F 11.2 °F 11.1 °F 79% 30.33 in 10.0 mi West 3.5 mph - N/A   Overcast
6:56 PM 16.7 °F 11.2 °F 11.1 °F 79% 30.33 in 10.0 mi West 3.5 mph - N/A   Overcast
7:15 PM 16.0 °F 10.4 °F 11.1 °F 81% 30.33 in 10.0 mi West 3.5 mph - N/A   Mostly Cloudy
7:16 PM 15.8 °F 10.2 °F 11.1 °F 82% 30.33 in 10.0 mi West 3.5 mph - N/A   Mostly Cloudy
7:35 PM 15.1 °F 9.4 °F 10.9 °F 84% 30.33 in 10.0 mi West 3.5 mph - N/A   Scattered Clouds
7:55 PM 14.4 °F 6.9 °F 10.6 °F 85% 30.33 in 10.0 mi West 4.6 mph - N/A   Scattered Clouds
8:15 PM 13.6 °F - 9.9 °F 85% 30.33 in 10.0 mi Calm Calm - N/A   Scattered Clouds
8:16 PM 13.5 °F - 9.9 °F 86% 30.33 in 10.0 mi Calm Calm - N/A   Scattered Clouds
8:35 PM 12.7 °F 6.7 °F 9.1 °F 86% 30.32 in 10.0 mi WSW 3.5 mph - N/A   Scattered Clouds
8:55 PM 12.7 °F 6.7 °F 9.5 °F 87% 30.32 in 10.0 mi West 3.5 mph - N/A   Clear
9:15 PM 9.5 °F - 6.3 °F 87% 30.32 in 10.0 mi Calm Calm - N/A   Clear
9:16 PM 9.5 °F - 6.6 °F 88% 30.32 in 10.0 mi Calm Calm - N/A   Clear
9:36 PM 9.7 °F - 7.3 °F 90% 30.32 in 10.0 mi Calm Calm - N/A   Clear
9:55 PM 9.3 °F - 7.2 °F 91% 30.32 in 10.0 mi Calm Calm - N/A   Clear
10:15 PM 9.1 °F - 7.3 °F 92% 30.32 in 10.0 mi Calm Calm - N/A   Clear
10:16 PM 9.3 °F - 7.5 °F 92% 30.32 in 10.0 mi Calm Calm - N/A   Clear
10:35 PM 8.4 °F - 6.1 °F 90% 30.32 in 10.0 mi Calm Calm - N/A   Clear
10:55 PM 9.1 °F - 7.2 °F 92% 30.32 in 10.0 mi Calm Calm - N/A   Clear
10:56 PM 9.1 °F - 7.2 °F 92% 30.32 in 10.0 mi Calm Calm - N/A   Clear
11:15 PM 9.3 °F - 7.3 °F 92% 30.31 in 10.0 mi Calm Calm - N/A   Clear
11:35 PM 8.2 °F - 6.3 °F 92% 30.31 in 10.0 mi Calm Calm - N/A   Clear
11:55 PM 8.1 °F - 5.9 °F 91% 30.31 in 10.0 mi Calm Calm - N/A   Clear